Home   Weather   Gloucester   Past weeks

Flag for United Kingdom Past Weather in Gloucester, England, United Kingdom — Yesterday and Last 2 Weeks

Now
50 °F

Fog.


Feels Like: 48 °F
Forecast: N/A
Wind: 5 mph from South

Location: Staverton Private

Current Time: Dec 6, 2016 at 6:11:03 pm

Latest Report: Dec 6, 2016 at 5:20 pm


Visibility: 2 mi

Pressure: 30.27 "Hg

Humidity: 94%

Dew Point: 48 °F

Location of GloucesterLocation

Past Weather in Gloucester — Graph

°F

Gloucester Temperature Yesterday

Maximum temperature yesterday: 39 °F (at 1:20 pm)
Minimum temperature yesterday: 27 °F (at 6:50 am)
Average temperature yesterday: 34 °F

High & Low Weather Summary for the Past Weeks

 TemperatureHumidityPressure
High52 °F (Nov 21, 5:20 pm)100% (Nov 21, 4:20 pm)30.60 "Hg (Nov 21, 4:20 pm)
Low21 °F (Nov 30, 8:20 am)43% (Nov 28, 2:50 pm)29.03 "Hg (Nov 21, 4:20 pm)
Average41 °F87%30.23 "Hg
* Reported Nov 21 4:20 pm — Dec 6 4:50 pm, Gloucester, Weather by CustomWeather, © 2016

Note: Actual official high and low records may vary slightly from our data, if they occured in-between our weather recording intervals... More about our weather records

Advertising

Gloucester Weather History for the Previous 24 Hours

Scroll right to see more
 ConditionsComfort  
Time TempWeatherWind HumidityBarometerVisibility
4:50 pm
Tue, Dec 6
50 °FFog.5 mph94%30.27 "Hg2 mi
4:20 pm48 °FFog.No wind100%30.27 "Hg2 mi
3:50 pm46 °FFog.No wind100%30.27 "Hg2 mi
3:20 pm48 °FFog.No wind94%30.27 "Hg3 mi
2:50 pm50 °FLow clouds.2 mph94%30.27 "Hg4 mi
2:20 pm50 °FFog.3 mph94%30.27 "Hg2 mi
1:50 pm50 °FFog.3 mph94%30.27 "Hg2 mi
1:20 pm50 °FFog.2 mph94%30.27 "Hg3 mi
12:50 pm50 °FFog.5 mph94%30.27 "Hg3 mi
12:20 pm46 °FFog.No wind100%30.27 "Hg2 mi
11:50 am45 °FDrizzle. Fog.No wind93%30.30 "Hg1 mi
11:20 am43 °FDrizzle. Fog.No wind100%30.30 "Hg1 mi
10:50 am43 °FDrizzle. Fog.No wind100%30.30 "Hg1 mi
10:20 am48 °FFog.2 mph94%30.30 "Hg2 mi
9:50 am46 °FFog.No wind100%30.30 "Hg2 mi
9:20 am41 °FFog.No wind100%30.30 "Hg2 mi
8:50 am39 °FFog.3 mph100%30.30 "Hg1 mi
8:20 am39 °FFog.2 mph100%30.30 "Hg1 mi
7:50 am39 °FFog.No wind100%30.30 "Hg1 mi
7:20 am39 °FFog.No wind100%30.30 "Hg1 mi
6:50 am37 °FFog.No wind100%30.27 "Hg0 mi
7:20 pm
Mon, Dec 5
34 °FHaze.No wind100%30.24 "Hg3 mi
6:50 pm34 °FHaze.No wind100%30.24 "Hg3 mi
6:20 pm34 °FHaze.No wind100%30.24 "Hg3 mi
Weather by CustomWeather, © 2016

See weather overviewHow to use our weather pages